SL-16 DEB, 22551

Orbit data source: Space-Track

SL-16 DEB, 22551 is space debris in LEO originally from a launch on Fri, 25 Dec 1992 UTC launched from the Tyuratam Missile And Space Complex (TTMTR). Debris objects in space refer to the collection of defunct objects orbiting the Earth. Examples of debris include non-operational satellites, rocket bodies, and fragments generated from explosions, collisions, or faulty payload assembly.

Loading next visibility...
Identifier
22551, 1992-093HM
Orbit
LEO
Country
Flag of CISCIS
Related business
Manufacturer
Unknown
Mission
Spacecraft
Bus & Motor
Unknown
Mass
Unknown
Launch date (UTC)
1992-12-25 (33 years ago)
Launch vehicle
Unknown
Launch site
Tyuratam Missile And Space Complex (TTMTR)
Object type
Payload
Rocket body
Debris
Shape & HBR
Unknown shape, 0.1 m
Radar Cross Section
Small (<0.1 m²)

Expand to show TLE details & history
Last TLE update: 5 hours ago

TLE from 5 hours ago
0 SL-16 DEB
1 22551U 92093HM  26127.29860017  .00000106  00000-0  10490-3 0  9993
2 22551  70.8615 129.1374 0092228  57.1675 303.8275 13.97128788697795
Epoch: 2026-05-07T07:09Z
TLE epoch observation values (Epoch: 2026-05-07T07:09:59.054Z)
Latitude
-0.00006°
Longitude
156.49458°
Altitude
869.164 km
Speed
7.437 km/s
True Right ascension
08h 36m 32s
True Declination
0° 00' 00"
Sunlit
Object was in daylight at epoch
Visualization orbit readout
Latitude
Unknown
Longitude
Unknown
Altitude
Unknown
Speed
Unknown
Apparent Right ascension
Unknown
Apparent Declination
Unknown
Sunlit
N/A
Visualization observer readout
Local Sidereal Time
20:06:08
Azimuth
Unknown
Elevation
Unknown
Doppler factor
Unknown
Orbital elements
Apogee altitude
968.851 km
Perigee altitude
834.57 km
Semi-major axis
7,279.847 km
Eccentricity
0.00922
Inclination
70.8615°
RAAN
129.1374°
Arg. of periapsis
57.1675°
True anomaly
302.94392°
Mean anomaly
303.8275°
Eccentric anomaly
303.38627°
Mean motion
3.4943 °/min
Orbital period
103.03 mins
BSTAR
0.0001049
Loading maneuver chart data...
Computing Atmospheric mass density...

Documentation

Showing up to 5 results
|